Wind_Speed
41 42 43 45 46 47 47 46 46 44 45 45 44 43 43 43 44 43 42 42 41 41 40 40 39 39 39 39 38 38 36 36 36 35 35 35 33 33 32 32 31 31 30
41 41 42 43 45 47 48 47 46 45 45 45 45 44 43 44 44 44 43 43 43 43 42 42 41 40 41 41 40 40 38 37 37 37 37 37 36 35 34 33 33 32 32
40 41 42 43 44 45 47 47 47 47 46 45 45 45 45 45 44 44 44 44 44 43 44 43 43 42 42 42 42 41 40 39 38 38 38 38 38 38 37 36 35 33 32
38 39 42 43 44 44 45 46 46 47 47 47 47 46 46 46 45 46 45 45 45 45 44 45 44 44 43 43 42 42 41 41 40 40 40 40 39 39 39 38 37 36 35
38 39 41 42 43 44 44 46 47 46 47 47 46 47 47 47 47 47 47 46 46 46 45 46 46 46 45 45 44 43 43 42 41 40 40 40 41 41 40 39 38 37 36
37 39 41 42 43 43 43 45 45 46 47 47 47 47 47 47 47 47 48 48 47 46 46 46 47 47 46 46 46 45 44 44 43 42 42 41 41 42 42 41 39 38 37
34 38 40 41 42 43 44 45 45 46 47 48 48 48 48 48 47 47 47 48 48 48 46 46 47 47 47 46 46 46 46 45 44 44 43 43 42 42 42 43 41 39 38
32 35 38 40 41 42 44 44 45 47 48 48 48 48 49 49 48 48 48 48 48 48 48 47 47 48 47 47 47 48 47 46 46 45 45 45 45 44 43 42 42 40 39
31 32 34 38 40 41 43 45 46 47 49 49 50 48 47 48 49 48 48 49 49 49 48 48 48 49 49 49 49 48 48 48 47 47 46 46 46 45 45 43 42 42 41
29 31 32 35 38 39 41 42 44 46 48 48 48 47 46 46 47 47 48 48 49 50 49 49 50 50 50 50 50 50 50 49 49 49 49 48 48 46 46 44 44 43 43
28 29 31 33 35 37 39 41 43 44 45 45 46 47 46 46 48 48 48 49 50 51 51 51 50 51 51 51 52 51 51 50 50 51 51 50 49 48 47 47 46 45 44
27 27 29 32 35 37 38 39 43 43 44 44 43 44 45 45 45 46 47 47 48 49 49 50 51 51 51 52 52 52 51 51 51 50 49 49 49 49 48 48 48 47 46
26 27 28 31 34 36 37 39 42 44 44 44 44 44 43 44 45 46 46 45 47 48 48 49 49 49 49 50 50 49 49 49 50 49 48 49 49 49 49 49 49 49 47
26 27 28 29 32 34 36 37 38 40 43 44 45 45 45 45 46 46 46 46 46 46 48 49 49 49 48 48 49 49 49 48 49 50 50 50 50 50 50 50 50 50 49
27 27 27 27 30 32 34 37 38 40 41 43 44 45 46 45 44 45 46 45 46 46 47 47 48 48 49 49 50 50 50 49 49 49 50 51 50 50 51 51 50 50 50
27 28 28 28 29 31 33 35 38 39 41 42 43 44 45 45 45 45 45 45 46 46 47 47 48 49 50 50 50 50 50 49 50 49 49 49 49 51 51 51 51 51 51
27 29 29 29 30 31 32 34 38 40 41 41 41 42 44 45 46 47 46 47 47 47 48 49 49 49 49 50 50 50 50 51 50 50 48 48 49 50 50 51 52 52 51
28 29 30 30 31 32 33 34 35 38 39 41 42 42 43 43 45 46 46 46 48 48 48 48 48 49 49 49 50 50 49 49 48 48 48 49 49 49 49 50 51 52 51
27 29 30 30 31 32 33 35 35 36 37 38 40 41 42 43 44 45 46 46 46 47 48 47 47 47 48 49 48 49 49 48 48 48 48 48 49 50 50 50 51 51 51
28 29 30 31 31 31 32 33 35 36 36 36 37 39 41 41 42 42 43 44 45 46 46 47 46 46 46 46 46 47 48 48 49 48 47 47 49 49 50 49 50 50 51
29 29 30 31 31 31 31 32 33 34 36 36 36 37 38 39 39 39 40 42 43 44 44 44 44 45 45 45 45 46 47 47 48 48 48 47 48 49 49 50 50 50 50
27 27 28 30 31 30 30 31 32 33 34 36 37 36 37 37 37 37 38 40 41 41 41 41 42 43 44 44 44 44 46 47 46 47 48 48 48 48 48 49 50 51 50
25 26 26 27 29 29 29 30 31 31 32 34 34 35 36 36 36 37 36 37 38 39 40 40 40 41 42 43 43 44 44 45 46 46 47 48 48 49 49 49 50 50 50
25 25 25 26 26 27 27 28 29 29 30 31 33 34 35 35 36 36 37 37 37 37 38 39 39 40 40 41 41 41 41 42 44 45 45 46 48 49 49 49 49 49 50
24 24 24 24 24 25 25 26 27 27 28 29 31 32 33 34 35 36 37 37 37 37 37 37 38 38 39 39 39 39 39 40 41 42 43 44 46 47 48 48 48 49 49
23 23 23 23 23 23 24 25 25 26 26 28 29 30 31 32 34 34 35 35 35 36 36 36 36 37 37 37 37 38 38 38 39 40 41 43 43 44 45 46 47 48 48
Wind_Direction
240 236 236 234 233 232 232 233 233 234 236 237 236 236 236 238 239 240 241 241 241 241 243 243 243 245 245 246 247 247 247 249 250 250 251 251 252 253 254 256 258 260 262
238 234 234 233 233 232 232 232 234 234 236 238 237 237 237 238 239 241 242 242 243 243 243 244 246 247 247 246 247 248 248 249 250 251 252 253 253 253 254 255 258 259 261
238 235 234 233 232 233 233 233 234 235 235 237 239 238 238 238 239 241 241 242 243 244 245 245 245 247 248 248 247 248 249 249 250 251 253 253 253 253 254 255 257 258 260
239 236 234 233 232 233 233 233 235 236 236 237 239 240 239 239 240 241 243 243 244 245 246 246 246 247 247 247 246 247 248 249 250 251 252 253 253 253 253 255 256 258 259
239 236 234 233 233 234 235 234 234 235 236 237 239 241 241 241 241 242 242 244 245 245 245 246 245 246 246 246 246 247 247 247 248 249 250 251 252 253 254 255 255 256 257
239 236 234 233 234 236 236 235 234 235 237 238 239 240 241 242 243 243 242 243 245 245 246 246 245 246 246 247 247 247 247 248 248 248 249 251 251 253 254 254 255 255 256
240 237 236 236 236 237 237 236 236 237 237 238 239 240 241 242 243 244 244 245 246 246 247 246 245 246 247 247 247 247 248 248 248 248 249 250 251 252 254 254 255 256 257
242 240 239 238 238 238 237 236 238 238 238 238 239 240 241 242 243 245 245 247 246 246 247 247 247 247 247 246 247 249 249 250 249 249 249 250 252 253 253 254 255 256 257
247 244 242 240 240 239 237 238 240 240 240 240 241 241 242 244 245 246 247 246 246 247 248 248 248 248 248 248 249 249 249 250 251 250 250 251 252 253 254 255 256 256 256
250 250 247 244 242 242 240 240 241 241 241 241 241 241 242 244 245 247 248 248 248 248 247 248 248 249 249 250 250 250 250 250 251 250 250 250 251 253 253 254 255 256 256
257 254 251 246 243 243 243 243 242 243 242 242 242 243 244 246 246 248 249 249 249 249 249 249 250 250 250 250 249 249 250 250 250 251 251 251 251 252 252 252 254 255 256
262 259 255 249 246 245 244 244 243 243 243 242 243 245 246 247 248 249 250 250 250 250 250 250 251 251 251 250 249 249 249 249 250 251 250 250 251 252 252 253 254 256 256
261 261 259 255 252 250 247 245 245 244 244 244 244 245 247 248 249 250 250 250 251 249 249 249 250 251 250 249 249 249 249 250 250 250 249 249 250 251 252 254 255 256 256
262 262 261 259 257 254 252 248 247 246 246 247 247 246 248 249 250 250 251 252 251 250 250 250 250 249 249 249 251 250 250 252 252 251 250 250 252 252 253 253 254 255 255
266 264 264 261 259 257 254 251 249 248 248 249 249 248 248 249 250 251 252 252 252 250 250 249 249 249 249 250 251 251 251 252 252 252 252 252 252 252 253 252 253 253 254
270 267 265 264 263 260 256 254 250 249 249 249 250 250 249 249 250 251 252 252 251 251 250 250 250 249 249 249 250 251 251 252 251 252 253 252 251 252 253 252 252 252 252
271 270 267 266 266 263 260 256 253 251 251 251 250 250 251 251 251 252 253 253 253 253 251 250 250 250 249 249 250 251 251 252 253 253 252 252 252 253 253 253 252 252 252
273 272 270 268 268 266 264 260 256 253 252 252 252 252 252 251 251 252 253 254 253 252 251 251 250 249 249 250 250 249 250 251 252 252 252 252 253 253 254 253 253 253 254
277 274 272 270 269 268 266 263 260 257 254 253 253 254 253 253 253 253 253 253 253 252 251 249 249 250 250 250 250 250 250 251 252 252 252 252 253 254 254 254 254 254 254
279 276 274 273 271 270 268 264 260 258 257 256 256 255 255 255 254 254 254 253 253 253 253 252 251 250 250 252 252 252 251 251 252 252 252 252 253 254 255 254 254 255 256
283 278 276 274 272 270 268 264 261 260 259 259 258 257 256 255 255 255 254 253 253 253 253 253 252 251 251 252 253 254 254 253 252 251 251 252 254 255 256 256 255 257 258
287 283 278 276 273 270 268 265 263 261 260 259 258 258 256 255 254 253 253 253 253 252 252 252 252 252 252 252 254 255 254 252 251 251 252 253 254 255 255 256 256 258 260
289 288 283 278 275 271 268 266 265 264 262 260 258 257 256 255 255 255 254 253 252 252 252 252 251 252 253 253 254 255 254 253 252 252 253 253 254 255 256 257 257 258 259
289 287 285 281 278 274 269 267 266 264 263 261 259 257 256 256 256 255 255 255 255 254 253 253 252 253 254 254 254 254 252 252 252 254 254 254 254 255 256 257 257 257 258
288 286 285 283 281 277 272 269 266 264 263 261 260 258 257 257 257 256 255 255 255 254 254 253 253 253 254 254 254 253 252 252 253 253 253 254 255 256 257 258 258 258 259
288 286 285 284 282 278 274 271 269 266 264 262 262 260 259 258 257 256 254 253 253 253 253 253 253 253 253 253 254 253 251 252 252 253 254 255 255 256 257 258 258 258 259
Height
5674 5678 5682 5687 5693 5698 5702 5708 5713 5717 5721 5725 5729 5734 5738 5741 5744 5748 5751 5754 5757 5760 5763 5766 5768 5771 5774 5777 5780 5782 5784 5787 5788 5791 5792 5794 5795 5797 5799 5800 5801 5802 5802
5663 5668 5672 5677 5682 5687 5692 5697 5702 5707 5711 5715 5720 5724 5728 5731 5735 5738 5741 5744 5747 5750 5753 5757 5759 5762 5764 5767 5770 5773 5775 5778 5780 5782 5784 5786 5788 5789 5791 5792 5793 5794 5795
5654 5658 5663 5667 5671 5676 5681 5686 5692 5696 5701 5705 5709 5713 5717 5721 5724 5728 5731 5734 5737 5740 5743 5746 5749 5752 5755 5757 5760 5763 5766 5768 5770 5772 5774 5776 5778 5780 5782 5783 5785 5786 5787
5645 5649 5653 5657 5662 5667 5671 5676 5681 5685 5690 5695 5699 5703 5707 5711 5715 5718 5721 5723 5727 5730 5733 5736 5739 5742 5744 5747 5750 5753 5756 5758 5761 5762 5764 5766 5768 5770 5773 5775 5776 5777 5779
5635 5639 5643 5648 5652 5657 5660 5665 5670 5674 5679 5684 5688 5693 5697 5700 5704 5707 5711 5713 5716 5719 5723 5725 5728 5731 5734 5737 5740 5742 5745 5748 5750 5752 5754 5756 5758 5760 5762 5765 5767 5768 5770
5626 5630 5634 5638 5642 5646 5649 5654 5659 5664 5669 5673 5678 5682 5686 5689 5693 5696 5700 5703 5705 5709 5711 5714 5717 5720 5723 5726 5729 5732 5734 5737 5740 5742 5744 5746 5748 5750 5752 5755 5756 5758 5760
5618 5621 5625 5628 5632 5636 5640 5644 5649 5654 5658 5662 5667 5671 5674 5678 5681 5685 5688 5691 5695 5698 5701 5703 5706 5709 5712 5715 5718 5721 5724 5726 5729 5731 5733 5735 5737 5740 5742 5744 5746 5748 5750
5611 5613 5616 5619 5623 5627 5631 5634 5638 5643 5647 5652 5656 5660 5663 5667 5670 5674 5678 5680 5683 5686 5689 5692 5695 5698 5701 5704 5707 5710 5713 5715 5718 5720 5723 5725 5727 5729 5731 5734 5736 5738 5740
5604 5606 5608 5611 5614 5617 5621 5624 5628 5632 5636 5640 5644 5648 5652 5656 5660 5663 5666 5669 5672 5674 5678 5681 5684 5687 5689 5692 5696 5699 5701 5704 5707 5709 5711 5714 5716 5718 5721 5723 5725 5727 5729
5597 5598 5600 5602 5605 5608 5611 5614 5618 5621 5625 5629 5633 5637 5641 5645 5648 5651 5654 5657 5660 5663 5666 5669 5672 5675 5678 5680 5684 5687 5689 5692 5695 5697 5700 5702 5705 5707 5710 5712 5714 5716 5718
5591 5591 5592 5594 5596 5599 5602 5604 5608 5611 5615 5618 5622 5626 5630 5633 5637 5639 5642 5645 5648 5651 5653 5656 5659 5662 5665 5668 5671 5674 5677 5680 5682 5685 5687 5690 5693 5695 5698 5700 5702 5704 5707
5584 5584 5585 5586 5588 5590 5593 5595 5598 5602 5605 5608 5612 5616 5619 5622 5625 5627 5630 5632 5635 5638 5641 5643 5646 5649 5652 5655 5658 5661 5664 5667 5670 5672 5675 5678 5680 5683 5686 5688 5691 5693 5695
5577 5577 5578 5578 5580 5582 5584 5586 5589 5592 5595 5598 5602 5605 5608 5611 5613 5616 5618 5620 5622 5625 5628 5631 5634 5636 5639 5642 5645 5648 5651 5654 5657 5659 5662 5665 5668 5670 5673 5676 5678 5681 5683
5570 5570 5570 5570 5571 5572 5574 5576 5579 5582 5585 5588 5591 5594 5596 5599 5602 5604 5606 5608 5610 5613 5615 5618 5621 5624 5626 5629 5632 5635 5638 5641 5644 5647 5649 5652 5655 5657 5660 5663 5665 5668 5671
5563 5562 5562 5562 5563 5564 5565 5567 5569 5572 5574 5577 5579 5582 5584 5587 5589 5591 5593 5596 5598 5600 5602 5605 5608 5611 5614 5617 5620 5622 5625 5628 5631 5634 5636 5639 5642 5644 5647 5650 5652 5655 5658
5555 5555 5555 5554 5554 5555 5556 5557 5559 5561 5563 5565 5568 5570 5572 5574 5577 5578 5580 5582 5585 5587 5589 5592 5595 5598 5601 5604 5606 5609 5612 5615 5617 5621 5623 5626 5629 5631 5634 5636 5639 5642 5644
5548 5547 5546 5546 5546 5546 5546 5547 5548 5550 5552 5554 5556 5558 5560 5562 5564 5566 5568 5569 5571 5573 5576 5578 5581 5584 5587 5590 5593 5595 5598 5601 5604 5607 5610 5613 5615 5618 5620 5623 5625 5628 5630
5540 5539 5538 5538 5537 5537 5537 5537 5538 5539 5541 5542 5544 5546 5548 5550 5552 5553 5555 5556 5558 5560 5563 5565 5568 5571 5574 5577 5579 5582 5585 5588 5591 5594 5597 5600 5602 5605 5607 5609 5612 5614 5617
5532 5531 5529 5529 5528 5528 5527 5527 5527 5529 5530 5532 5533 5535 5537 5538 5539 5541 5542 5543 5545 5547 5549 5552 5555 5557 5560 5563 5565 5568 5571 5575 5578 5581 5584 5586 5589 5592 5594 5597 5599 5602 5603
5523 5522 5521 5519 5518 5518 5517 5517 5517 5518 5520 5521 5522 5524 5525 5526 5527 5528 5530 5531 5533 5535 5537 5539 5542 5544 5547 5550 5552 5554 5558 5562 5565 5568 5571 5573 5576 5578 5580 5582 5585 5587 5589
5514 5513 5511 5510 5509 5508 5507 5507 5507 5508 5509 5510 5511 5512 5513 5515 5516 5517 5518 5519 5521 5523 5525 5527 5529 5532 5534 5537 5539 5542 5544 5548 5551 5554 5557 5560 5562 5564 5566 5569 5571 5573 5575
5505 5503 5502 5500 5499 5498 5497 5497 5498 5498 5499 5500 5501 5502 5503 5504 5505 5506 5507 5508 5510 5512 5513 5515 5517 5519 5521 5524 5526 5529 5531 5534 5537 5541 5544 5546 5549 5551 5553 5555 5557 5559 5561
5497 5495 5493 5491 5490 5489 5488 5488 5488 5488 5488 5489 5490 5491 5492 5493 5494 5495 5496 5497 5499 5500 5502 5504 5506 5508 5510 5512 5514 5516 5519 5521 5524 5528 5531 5533 5535 5537 5539 5541 5543 5545 5546
5489 5487 5485 5483 5481 5479 5479 5478 5478 5478 5479 5479 5480 5480 5481 5482 5483 5484 5485 5487 5488 5490 5491 5493 5495 5497 5499 5501 5503 5505 5507 5509 5512 5515 5517 5519 5521 5523 5526 5528 5529 5531 5533
5481 5479 5477 5474 5473 5471 5470 5470 5469 5469 5469 5470 5470 5470 5471 5472 5473 5474 5476 5477 5479 5480 5481 5483 5485 5487 5488 5490 5492 5493 5495 5498 5500 5502 5504 5506 5508 5510 5512 5514 5515 5517 5519
5474 5471 5469 5467 5465 5463 5462 5461 5461 5461 5461 5461 5461 5461 5461 5462 5463 5465 5466 5467 5469 5470 5471 5473 5474 5476 5478 5479 5481 5482 5484 5486 5488 5490 5492 5494 5495 5497 5499 5500 5502 5503 5505